TimeCDT,TemperatureF,Dew PointF,Humidity,Sea Level PressureIn,VisibilityMPH,Wind Direction,Wind SpeedMPH,Gust SpeedMPH,PrecipitationIn,Events,Conditions,WindDirDegrees,DateUTC
12:53 AM,64.0,57.9,80,30.00,10.0,SE,3.5,-,N/A,,Clear,140,2013-05-09 05:53:00
1:53 AM,63.0,57.9,84,29.99,10.0,SE,4.6,-,N/A,,Clear,130,2013-05-09 06:53:00
2:53 AM,64.0,57.9,80,29.99,10.0,South,4.6,-,N/A,,Clear,190,2013-05-09 07:53:00
3:53 AM,63.0,57.9,84,30.00,10.0,South,4.6,-,N/A,,Clear,190,2013-05-09 08:53:00
4:53 AM,63.0,57.9,84,30.01,10.0,SSW,4.6,-,N/A,,Clear,210,2013-05-09 09:53:00
5:53 AM,62.1,57.9,86,30.01,10.0,SSW,4.6,-,N/A,,Clear,200,2013-05-09 10:53:00
6:53 AM,62.6,59.0,88,30.02,10.0,South,8.1,-,N/A,,Clear,170,2013-05-09 11:53:00
7:53 AM,64.9,59.0,81,30.03,10.0,SSW,9.2,-,N/A,,Partly Cloudy,210,2013-05-09 12:53:00
8:53 AM,66.9,61.0,81,30.05,10.0,SSW,11.5,-,N/A,,Clear,210,2013-05-09 13:53:00
9:53 AM,70.0,61.0,73,30.07,10.0,WSW,11.5,21.9,N/A,,Clear,240,2013-05-09 14:53:00
10:53 AM,73.9,59.0,59,30.07,10.0,WSW,15.0,20.7,N/A,,Scattered Clouds,240,2013-05-09 15:53:00
11:53 AM,75.2,60.8,61,30.06,10.0,SSW,11.5,-,N/A,,Partly Cloudy,200,2013-05-09 16:53:00
12:53 PM,77.0,61.0,58,30.03,10.0,South,11.5,18.4,N/A,,Partly Cloudy,180,2013-05-09 17:53:00
1:53 PM,77.0,62.1,60,30.00,10.0,SSW,17.3,-,N/A,,Mostly Cloudy,200,2013-05-09 18:53:00
2:53 PM,75.2,62.6,65,30.00,10.0,SSW,15.0,-,N/A,,Overcast,200,2013-05-09 19:53:00
3:53 PM,73.0,63.0,71,29.99,10.0,SSW,13.8,-,N/A,,Overcast,200,2013-05-09 20:53:00
4:02 PM,73.4,62.6,69,30.00,10.0,SSW,12.7,-,N/A,,Overcast,200,2013-05-09 21:02:00
4:18 PM,71.6,64.4,78,29.99,10.0,South,13.8,-,N/A,,Overcast,190,2013-05-09 21:18:00
4:53 PM,72.0,64.0,76,29.97,10.0,South,6.9,-,N/A,,Overcast,190,2013-05-09 21:53:00
5:53 PM,72.0,64.9,78,29.98,10.0,SSW,4.6,-,N/A,,Overcast,200,2013-05-09 22:53:00
6:53 PM,72.0,64.9,78,29.97,10.0,Calm,Calm,-,N/A,,Overcast,0,2013-05-09 23:53:00
7:53 PM,70.0,66.9,90,29.96,10.0,ENE,3.5,-,N/A,,Mostly Cloudy,70,2013-05-10 00:53:00
8:53 PM,69.8,64.4,83,29.95,10.0,Calm,Calm,-,N/A,Thunderstorm,Mostly Cloudy,0,2013-05-10 01:53:00
9:29 PM,68.0,64.4,88,29.96,1.5,ESE,15.0,29.9,0.00,Rain-Thunderstorm,Heavy Thunderstorms and Rain,120,2013-05-10 02:29:00
9:39 PM,66.2,64.4,94,30.01,3.0,South,27.6,42.6,0.03,Rain-Thunderstorm,Light Thunderstorms and Rain,190,2013-05-10 02:39:00
9:41 PM,66.2,62.6,88,30.01,2.0,SSW,28.8,42.6,0.03,Rain-Thunderstorm,Heavy Thunderstorms and Rain,200,2013-05-10 02:41:00
9:43 PM,64.4,62.6,94,30.00,1.5,South,18.4,42.6,0.04,Rain-Thunderstorm,Heavy Thunderstorms and Rain,190,2013-05-10 02:43:00
9:53 PM,64.9,62.1,90,29.97,3.0,South,15.0,26.5,0.05,Rain-Thunderstorm,Thunderstorms and Rain,180,2013-05-10 02:53:00
10:53 PM,66.0,62.1,87,29.97,8.0,SW,8.1,-,0.06,Rain,Rain,220,2013-05-10 03:53:00
11:53 PM,64.4,62.6,94,29.97,10.0,SW,3.5,-,N/A,,Overcast,230,2013-05-10 04:53:00